Flag for Switzerland Weather past 2 weeks in Langenthal, Bern, Switzerland

Now
55 °F

Cool.


Feels Like: 55 °F
Forecast: 38 / 61 °F
Wind: 1 mph from South

Location: Wynau

Current Time: Sep 22, 2014 at 5:17:59 AM

Latest Report: Sep 22, 2014 at 4:00 AM


Visibility: N/A

Pressure: 30.11 "Hg

Humidity: 94%

Dew point: 54 °F

Location of LangenthalLocation

Historic Weather in Langenthal — Graph

°F

Langenthal temperature yesterday

Maximum temperature yesterday: 69 °F (at 12:00 PM)
Minimum temperature yesterday: 56 °F (at 4:00 AM)
Average temperature yesterday: 61 °F

Past Weeks' High & Low Weather Summary

 TemperatureHumidityPressure
High81 °F (Sep 7, 5:00 PM)100% (Sep 8, 7:00 AM)30.14 "Hg (Sep 8, 7:00 AM)
Low47 °F (Sep 12, 6:00 AM)44% (Sep 7, 5:00 PM)29.80 "Hg (Sep 17, 6:00 PM)
Average62 °F83%29.99 "Hg
* Reported Sep 7 4:00 AM — Sep 22 4:00 AM, Langenthal, Weather by CustomWeather, © 2014

Note: Actual official high and low records may vary slightly from our data, if they occured in-between our weather recording intervals... More about our weather records

Advertising

Langenthal weather history for previous 24 hours

 ConditionsComfort  
Time TempWeatherWind HumidityBarometerVisibility
4:00 AM
Sep 22
55 °FCool.1 mph94%30.11 "HgN/A
3:00 AM55 °FCool.1 mph97%30.11 "HgN/A
2:00 AM57 °FCool.2 mph92%30.10 "HgN/A
1:00 AM57 °FCool.1 mph94%30.09 "HgN/A
12:00 AM57 °FCool.2 mph96%30.09 "HgN/A
11:00 PM
Sep 21
59 °FCool.3 mph89%30.06 "HgN/A
10:00 PM58 °FCool.3 mph92%30.07 "HgN/A
9:00 PM59 °FCool.7 mph90%30.06 "HgN/A
8:00 PM61 °FCool.6 mph81%30.03 "HgN/A
7:00 PM63 °FMild.5 mph78%30.00 "HgN/A
6:00 PM65 °FMild.7 mph71%29.99 "HgN/A
5:00 PM66 °FMild.5 mph74%29.97 "HgN/A
4:00 PM67 °FMild.3 mph75%29.97 "HgN/A
3:00 PM65 °FMild.3 mph85%29.98 "HgN/A
2:00 PM63 °FMild.2 mph90%30.00 "HgN/A
1:00 PM64 °FMild.5 mph83%30.01 "HgN/A
12:00 PM69 °FMild.7 mph74%30.00 "HgN/A
11:00 AM65 °FMild.3 mph79%30.03 "HgN/A
10:00 AM63 °FMild.3 mph84%30.04 "HgN/A
9:00 AM60 °FCool.2 mph91%30.05 "HgN/A
8:00 AM58 °FCool.3 mph96%30.06 "HgN/A
7:00 AM58 °FCool.2 mph96%30.06 "HgN/A
6:00 AM58 °FCool.2 mph97%30.05 "HgN/A
5:00 AM57 °FCool.3 mph96%30.05 "HgN/A
Weather by CustomWeather, © 2014

See weather overviewHow to use our weather pages